Date String (YYYY-MM-DD hh:mm:ss) UTC,Instrument flags,absolute air pressure of the measurement (hPa),sample flow rate (lpm),inlet stack bypass flow (lpm),air temperature of the measurement (°C),ambient temperature measured by the external sensor (°C),aerosol sample conditioner tube jacket temperature (°C),OPC LED temperature (°C),internal box temperature (°C),relative humidity of the measurement (%),span deviation,mass concentration of particles derived from Lorenz-Mie calculation of OPC scattering (μg/m³),mass concentration of particles derived from Lorenz-Mie calculation of OPC scattering (μg/m³),mass concentration of particles derived from Lorenz-Mie calculation of OPC scattering (μg/m³)
DateTimeUTC,F1_M11,P_M11,Q1_M11,Q2_M11,T1_M11,T2_M11,T3_M11,T4_M11,T5_M11,U1_M11,ZSPAN_M11,X0_M11,X2_M11,X1_M11
2023-07-31 23:00:00,SystemResetWarning,0834.3,5.01,000.00,031.0,025.4,000.0,038.7,030.8,32.7,0000.0,0019.94,0007.99,0006.06
2023-07-31 23:01:00,SystemResetWarning,0834.3,5.00,000.00,030.9,025.8,000.0,038.7,030.8,33.1,0000.0,0019.29,0008.05,0006.07
2023-07-31 23:02:00,SystemResetWarning,0834.6,5.00,000.00,030.8,026.2,000.0,038.8,030.9,32.5,0000.0,0019.24,0008.03,0006.07
2023-07-31 23:03:00,SystemResetWarning,0834.4,5.01,000.00,030.8,026.7,000.0,038.8,031.0,32.8,0000.0,0017.89,0008.04,0006.06
2023-07-31 23:04:00,SystemResetWarning,0834.5,5.00,000.00,030.8,027.1,000.0,038.8,031.1,32.9,0000.0,0018.12,0008.05,0006.06
2023-07-31 23:05:00,SystemResetWarning,0834.4,4.98,000.00,030.8,027.3,000.0,038.8,031.2,32.2,0000.0,0018.10,0007.99,0006.05
2023-07-31 23:06:00,SystemResetWarning,0834.5,5.00,000.00,030.8,026.3,000.0,038.7,031.1,33.1,0000.0,0018.66,0007.97,0006.03
2023-07-31 23:07:00,SystemResetWarning,0834.3,5.00,000.00,030.7,025.3,000.0,038.5,030.9,32.6,0000.0,0018.36,0007.96,0006.01
2023-07-31 23:08:00,SystemResetWarning,0834.2,5.01,000.00,030.6,025.2,000.0,038.5,030.7,31.5,0000.0,0017.75,0007.87,0005.97
2023-07-31 23:09:00,SystemResetWarning,0834.2,5.01,000.00,030.4,025.5,000.0,038.5,030.6,31.2,0000.0,0018.38,0007.86,0005.96
2023-07-31 23:10:00,SystemResetWarning,0834.2,4.99,000.00,030.4,025.9,000.0,038.5,030.7,31.6,0000.0,0018.94,0007.84,0005.96
2023-07-31 23:11:00,SystemResetWarning,0834.2,5.00,000.00,030.3,026.4,000.0,038.5,030.8,31.7,0000.0,0020.04,0007.81,0005.94
2023-07-31 23:12:00,SystemResetWarning,0834.3,5.01,000.00,030.3,026.8,000.0,038.5,030.9,31.8,0000.0,0020.45,0007.73,0005.92
2023-07-31 23:13:00,SystemResetWarning,0834.2,5.00,000.00,030.3,027.2,000.0,038.5,031.0,32.3,0000.0,0020.56,0007.74,0005.90
2023-07-31 23:14:00,SystemResetWarning,0834.6,4.99,000.00,030.3,027.5,000.0,038.5,031.1,32.5,0000.0,0020.44,0007.67,0005.88
2023-07-31 23:15:00,SystemResetWarning,0834.3,4.98,000.00,030.3,026.5,000.0,038.4,031.0,32.5,0000.0,0020.74,0007.62,0005.84
2023-07-31 23:16:00,SystemResetWarning,0834.2,5.01,000.00,030.2,025.4,000.0,038.2,030.8,33.0,0000.0,0021.75,0007.57,0005.81
2023-07-31 23:17:00,SystemResetWarning,0834.2,5.01,000.00,030.2,025.2,000.0,038.2,030.6,33.2,0000.0,0021.90,0007.50,0005.79
2023-07-31 23:18:00,SystemResetWarning,0834.2,5.01,000.00,030.0,025.4,000.0,038.2,030.5,32.9,0000.0,0023.30,0007.47,0005.79
2023-07-31 23:19:00,SystemResetWarning,0834.2,4.99,000.00,030.0,025.9,000.0,038.2,030.6,33.6,0000.0,0023.42,0007.46,0005.80
2023-07-31 23:20:00,SystemResetWarning,0834.2,5.00,000.00,029.9,026.4,000.0,038.2,030.7,33.2,0000.0,0022.77,0007.45,0005.80
2023-07-31 23:21:00,SystemResetWarning,0834.2,5.00,000.00,029.9,026.8,000.0,038.2,030.8,32.7,0000.0,0022.49,0007.43,0005.80
2023-07-31 23:22:00,SystemResetWarning,0834.2,4.99,000.00,029.9,027.2,000.0,038.2,030.9,33.2,0000.0,0022.35,0007.39,0005.79
2023-07-31 23:23:00,SystemResetWarning,0834.2,4.99,000.00,030.0,027.0,000.0,038.1,030.9,33.7,0000.0,0021.92,0007.34,0005.78
2023-07-31 23:24:00,SystemResetWarning,0834.2,5.00,000.00,029.9,025.7,000.0,038.0,030.7,34.0,0000.0,0023.14,0007.22,0005.72
2023-07-31 23:25:00,SystemResetWarning,0834.1,5.01,000.00,029.8,025.1,000.0,037.9,030.6,34.6,0000.0,0022.82,0007.16,0005.70
2023-07-31 23:26:00,SystemResetWarning,0834.1,4.98,000.00,029.7,025.2,000.0,037.9,030.4,35.2,0000.0,0021.86,0007.09,0005.69
2023-07-31 23:27:00,SystemResetWarning,0834.1,5.03,000.00,029.8,025.5,000.0,037.9,030.4,34.8,0000.0,0020.80,0007.01,0005.66
2023-07-31 23:28:00,SystemResetWarning,0834.2,4.97,000.00,029.9,026.0,000.0,037.9,030.6,34.6,0000.0,0019.91,0006.98,0005.62
2023-07-31 23:29:00,SystemResetWarning,0834.2,5.01,000.00,029.9,026.5,000.0,038.0,030.7,34.9,0000.0,0018.22,0006.90,0005.57
2023-07-31 23:30:00,SystemResetWarning,0834.2,5.02,000.00,030.0,026.9,000.0,038.0,030.8,34.8,0000.0,0017.93,0006.82,0005.52
2023-07-31 23:31:00,SystemResetWarning,0834.2,4.98,000.00,030.2,027.3,000.0,038.0,030.9,34.5,0000.0,0017.66,0006.68,0005.44
2023-07-31 23:32:00,SystemResetWarning,0834.2,4.99,000.00,030.3,027.2,000.0,038.0,031.0,34.3,0000.0,0017.14,0006.58,0005.35
2023-07-31 23:33:00,SystemResetWarning,0834.1,5.00,000.00,030.3,025.9,000.0,037.9,030.8,34.0,0000.0,0016.34,0006.51,0005.31
2023-07-31 23:34:00,SystemResetWarning,0834.1,5.01,000.00,030.2,025.1,000.0,037.9,030.6,33.8,0000.0,0015.87,0006.48,0005.27
2023-07-31 23:35:00,SystemResetWarning,0834.1,5.00,000.00,030.2,025.2,000.0,037.9,030.4,34.5,0000.0,0015.00,0006.54,0005.27
2023-07-31 23:36:00,SystemResetWarning,0834.1,5.00,000.00,030.1,025.5,000.0,038.0,030.4,34.9,0000.0,0016.53,0006.53,0005.26
2023-07-31 23:37:00,SystemResetWarning,0834.1,4.99,000.00,030.1,026.0,000.0,038.0,030.5,35.3,0000.0,0017.14,0006.53,0005.24
2023-07-31 23:38:00,SystemResetWarning,0834.1,5.02,000.00,030.3,026.5,000.0,038.1,030.8,35.2,0000.0,0017.32,0006.55,0005.22
2023-07-31 23:39:00,SystemResetWarning,0834.2,4.97,000.00,030.6,026.9,000.0,038.1,031.0,34.6,0000.0,0017.62,0006.56,0005.22
2023-07-31 23:40:00,SystemResetWarning,0834.2,5.02,000.00,030.8,027.3,000.0,038.1,031.1,33.9,0000.0,0018.63,0006.60,0005.22
2023-07-31 23:41:00,SystemResetWarning,0834.2,5.00,000.00,030.9,027.2,000.0,038.2,031.1,33.6,0000.0,0019.30,0006.62,0005.22
2023-07-31 23:42:00,SystemResetWarning,0834.2,4.99,000.00,031.0,026.0,000.0,038.1,030.9,33.3,0000.0,0020.73,0006.69,0005.24
2023-07-31 23:43:00,SystemResetWarning,0834.2,5.01,000.00,030.9,025.1,000.0,038.1,030.7,33.3,0000.0,0022.16,0006.77,0005.26
2023-07-31 23:44:00,SystemResetWarning,0834.2,5.01,000.00,030.8,025.1,000.0,038.2,030.6,33.3,0000.0,0023.03,0006.82,0005.29
2023-07-31 23:45:00,SystemResetWarning,0834.2,5.00,000.00,030.7,025.5,000.0,038.3,030.5,33.9,0000.0,0024.43,0006.82,0005.30
2023-07-31 23:46:00,SystemResetWarning,0834.2,5.00,000.00,030.7,025.9,000.0,038.3,030.6,34.3,0000.0,0023.90,0006.74,0005.31
2023-07-31 23:47:00,SystemResetWarning,0834.2,4.98,000.00,030.7,026.4,000.0,038.4,030.8,34.9,0000.0,0023.90,0006.75,0005.33
2023-07-31 23:48:00,SystemResetWarning,0834.1,5.00,000.00,030.7,026.8,000.0,038.4,030.9,35.4,0000.0,0024.31,0006.80,0005.35
2023-07-31 23:49:00,SystemResetWarning,0834.1,5.01,000.00,030.9,027.2,000.0,038.5,031.1,35.2,0000.0,0025.23,0006.88,0005.37
2023-07-31 23:50:00,SystemResetWarning,0834.1,5.00,000.00,031.3,027.5,000.0,038.5,031.3,34.8,0000.0,0025.59,0006.95,0005.40
2023-07-31 23:51:00,SystemResetWarning,0834.2,4.98,000.00,031.6,026.9,000.0,038.5,031.3,34.2,0000.0,0025.16,0007.01,0005.42
2023-07-31 23:52:00,SystemResetWarning,0834.1,5.01,000.00,031.7,025.6,000.0,038.5,031.1,34.2,0000.0,0024.95,0007.02,0005.43
2023-07-31 23:53:00,SystemResetWarning,0834.1,5.01,000.00,031.7,025.2,000.0,038.5,031.0,34.4,0000.0,0024.30,0007.04,0005.45
2023-07-31 23:54:00,SystemResetWarning,0834.1,5.01,000.00,031.6,025.4,000.0,038.6,030.8,34.7,0000.0,0023.36,0007.08,0005.47
2023-07-31 23:55:00,SystemResetWarning,0834.0,4.97,000.00,031.5,025.8,000.0,038.7,030.8,35.1,0000.0,0023.27,0007.13,0005.49
2023-07-31 23:56:00,SystemResetWarning,0834.1,5.04,000.00,031.6,026.2,000.0,038.8,031.0,35.1,0000.0,0023.50,0007.21,0005.50
2023-07-31 23:57:00,SystemResetWarning,0834.1,4.98,000.00,031.7,026.7,000.0,038.9,031.2,34.9,0000.0,0023.93,0007.26,0005.51
2023-07-31 23:58:00,SystemResetWarning,0834.1,5.00,000.00,031.8,027.1,000.0,039.0,031.3,34.4,0000.0,0023.72,0007.29,0005.52
2023-07-31 23:59:00,SystemResetWarning,0834.1,5.00,000.00,031.9,027.5,000.0,039.1,031.4,34.1,0000.0,0025.39,0007.30,0005.52
